FW1419 Weather Reports


Display with metric or nautical units.
time (UTC)temp
F
wind
direction
speed
MPH
gust
MPH
rain 1hr
in
rain 24hr
in
rain mn
in
humidity
%
barometer
mb
20190819014337 88 238 4.0 8.0 0.00 0.00 0.00 29 1011.6
20190819013827 88 252 1.0 7.0 0.00 0.00 0.00 29 1011.5
20190819013330 88 271 4.0 7.0 0.00 0.00 0.00 28 1011.5
20190819012834 88 225 3.0 7.0 0.00 0.00 0.00 29 1011.5
20190819012337 89 266 4.0 10.0 0.00 0.00 0.00 29 1011.5
20190819011821 89 278 3.0 10.0 0.00 0.00 0.00 29 1011.5
20190819011326 89 286 3.0 10.0 0.00 0.00 0.00 28 1011.5
20190819010828 89 198 4.0 9.0 0.00 0.00 0.00 27 1011.4
20190819010331 90 246 3.0 10.0 0.00 0.00 0.00 28 1011.4
20190819005834 90 219 7.0 10.0 0.00 0.00 0.00 28 1011.4
20190819005333 90 259 2.0 11.0 0.00 0.00 0.00 27 1011.3
20190819004835 90 215 5.0 11.0 0.00 0.00 0.00 27 1011.3
20190819004322 91 230 5.0 10.0 0.00 0.00 0.00 26 1011.3
20190819003827 91 265 4.0 7.0 0.00 0.00 0.00 27 1011.4
20190819003331 92 223 4.0 7.0 0.00 0.00 0.00 24 1011.4
20190819002833 92 241 3.0 7.0 0.00 0.00 0.00 22 1011.4
20190819002336 92 232 2.0 9.0 0.00 0.00 0.00 20 1011.3
20190819001838 92 221 4.0 9.0 0.00 0.00 0.00 19 1011.3
20190819001321 93 231 3.0 5.0 0.00 0.00 0.00 19 1011.3
20190819000823 93 207 3.0 6.0 0.00 0.00 0.00 19 1011.3
20190819000325 93 168 2.0 7.0 0.00 0.00 0.00 20 1011.3
20190818235828 92 211 3.0 7.0 0.00 0.00 0.00 20 1011.3
20190818235331 92 242 3.0 10.0 0.00 0.00 0.00 20 1011.5
20190818234834 92 257 2.0 10.0 0.00 0.00 0.00 19 1011.5
20190818234340 92 257 1.0 7.0 0.00 0.00 0.00 19 1011.5
20190818233824 92 213 5.0 11.0 0.00 0.00 0.00 19 1011.5
20190818233330 92 240 4.0 11.0 0.00 0.00 0.00 20 1011.5
20190818232833 92 216 5.0 12.0 0.00 0.00 0.00 20 1011.5
20190818232335 92 243 2.0 9.0 0.00 0.00 0.00 21 1011.6
20190818231838 92 263 4.0 9.0 0.00 0.00 0.00 21 1011.6
20190818231341 92 216 4.0 14.0 0.00 0.00 0.00 21 1011.6
20190818230823 92 258 4.0 14.0 0.00 0.00 0.00 21 1011.7
20190818230328 92 212 5.0 11.0 0.00 0.00 0.00 20 1011.7
20190818225835 92 229 5.0 11.0 0.00 0.00 0.00 20 1011.7
20190818225334 92 171 3.0 11.0 0.00 0.00 0.00 19 1011.8
20190818224823 92 217 6.0 12.0 0.00 0.00 0.00 20 1011.8
20190818224326 92 225 6.0 12.0 0.00 0.00 0.00 20 1011.8
20190818223831 93 230 3.0 12.0 0.00 0.00 0.00 20 1011.9
20190818223335 92 232 4.0 12.0 0.00 0.00 0.00 19 1011.9
20190818222821 93 202 2.0 10.0 0.00 0.00 0.00 19 1011.9
20190818222327 92 221 4.0 12.0 0.00 0.00 0.00 19 1012.0
20190818221832 92 201 2.0 12.0 0.00 0.00 0.00 19 1012.0
20190818221337 91 257 4.0 11.0 0.00 0.00 0.00 19 1012.0
20190818220838 91 226 8.0 11.0 0.00 0.00 0.00 18 1012.2
20190818220340 91 261 4.0 11.0 0.00 0.00 0.00 19 1012.2
20190818215827 91 274 4.0 6.0 0.00 0.00 0.00 19 1012.2
20190818215331 91 264 4.0 10.0 0.00 0.00 0.00 19 1012.4
20190818214833 91 202 6.0 10.0 0.00 0.00 0.00 19 1012.4
20190818214334 91 289 4.0 10.0 0.00 0.00 0.00 20 1012.4
20190818213837 90 258 1.0 11.0 0.00 0.00 0.00 19 1012.4
20190818213339 90 284 4.0 11.0 0.00 0.00 0.00 19 1012.4
20190818212824 90 233 4.0 10.0 0.00 0.00 0.00 20 1012.4
20190818212328 90 271 5.0 10.0 0.00 0.00 0.00 20 1012.5
20190818211833 90 271 4.0 10.0 0.00 0.00 0.00 19 1012.5
20190818211333 90 236 3.0 10.0 0.00 0.00 0.00 20 1012.5
20190818210834 90 211 2.0 9.0 0.00 0.00 0.00 20 1012.6
20190818210320 90 225 4.0 9.0 0.00 0.00 0.00 21 1012.6
20190818205823 90 263 2.0 7.0 0.00 0.00 0.00 21 1012.6
20190818205325 90 200 3.0 11.0 0.00 0.00 0.00 22 1012.9
20190818204830 90 230 7.0 11.0 0.00 0.00 0.00 21 1012.9
20190818204336 90 242 3.0 11.0 0.00 0.00 0.00 21 1012.9
20190818203838 89 216 3.0 9.0 0.00 0.00 0.00 21 1012.9
20190818203340 89 244 2.0 9.0 0.00 0.00 0.00 22 1012.9
20190818202823 88 223 4.0 9.0 0.00 0.00 0.00 23 1012.9
20190818202328 89 234 5.0 10.0 0.00 0.00 0.00 22 1013.0
20190818201831 89 265 3.0 7.0 0.00 0.00 0.00 23 1013.0
20190818201334 89 211 3.0 9.0 0.00 0.00 0.00 24 1013.0
20190818200821 88 200 3.0 7.0 0.00 0.00 0.00 24 1013.1
20190818200324 88 203 2.0 10.0 0.00 0.00 0.00 25 1013.1
20190818195826 88 201 3.0 10.0 0.00 0.00 0.00 25 1013.1
20190818195328 87 250 4.0 6.0 0.00 0.00 0.00 24 1013.4
20190818194830 87 211 3.0 6.0 0.00 0.00 0.00 24 1013.4
20190818194333 86 240 3.0 9.0 0.00 0.00 0.00 26 1013.4
20190818193832 86 275 3.0 9.0 0.00 0.00 0.00 26 1013.4
20190818193335 86 271 2.0 10.0 0.00 0.00 0.00 26 1013.4
20190818192836 86 254 4.0 10.0 0.00 0.00 0.00 27 1013.4
20190818192318 86 225 1.0 7.0 0.00 0.00 0.00 30 1013.5
20190818191845 85 283 1.0 7.0 0.00 0.00 0.00 30 1013.5
20190818191321 85 94 0.0 7.0 0.00 0.00 0.00 31 1013.5
20190818190828 84 298 2.0 6.0 0.00 0.00 0.00 31 1013.4
20190818190331 84 283 3.0 6.0 0.00 0.00 0.00 32 1013.4
20190818185834 85 227 1.0 4.0 0.00 0.00 0.00 33 1013.4
20190818185337 85 309 0.0 6.0 0.00 0.00 0.00 35 1013.5
20190818184838 83 219 1.0 6.0 0.00 0.00 0.00 38 1013.5
20190818184320 83 279 2.0 5.0 0.00 0.00 0.00 37 1013.5
20190818183823 83 250 1.0 6.0 0.00 0.00 0.00 37 1013.6
20190818183330 82 225 4.0 6.0 0.00 0.00 0.00 36 1013.6
20190818182833 83 211 3.0 4.0 0.00 0.00 0.00 35 1013.6
20190818182335 82 346 0.0 6.0 0.00 0.00 0.00 37 1014.0
20190818181838 82 224 0.0 6.0 0.00 0.00 0.00 36 1014.0
20190818181325 81 202 3.0 5.0 0.00 0.00 0.00 38 1014.0
20190818180829 80 293 1.0 4.0 0.00 0.00 0.00 41 1014.0
20190818180332 81 267 2.0 4.0 0.00 0.00 0.00 42 1014.0
20190818175834 80 227 0.0 3.0 0.00 0.00 0.00 42 1014.0
20190818175333 80 281 0.0 3.0 0.00 0.00 0.00 42 1014.1
20190818174837 79 228 1.0 3.0 0.00 0.00 0.00 43 1014.1
20190818174319 78 22 0.0 3.0 0.00 0.00 0.00 45 1014.1
20190818173824 78 259 1.0 3.0 0.00 0.00 0.00 46 1014.1
20190818173326 78 267 1.0 4.0 0.00 0.00 0.00 48 1014.1
20190818172830 77 236 2.0 4.0 0.00 0.00 0.00 49 1014.1
20190818172334 76 227 2.0 3.0 0.00 0.00 0.00 50 1014.0
20190818171836 76 298 0.0 3.0 0.00 0.00 0.00 51 1014.0
20190818171325 76 290 1.0 3.0 0.00 0.00 0.00 51 1014.0
20190818170830 75 287 0.0 2.0 0.00 0.00 0.00 53 1013.9
20190818170332 74 289 0.0 4.0 0.00 0.00 0.00 54 1013.9
20190818165834 74 263 2.0 4.0 0.00 0.00 0.00 55 1013.9
20190818165339 74 247 0.0 3.0 0.00 0.00 0.00 55 1014.0
20190818164823 74 228 1.0 3.0 0.00 0.00 0.00 55 1014.0
20190818164325 73 240 0.0 3.0 0.00 0.00 0.00 56 1014.0
20190818163827 73 273 0.0 3.0 0.00 0.00 0.00 56 1013.9
20190818163330 72 268 0.0 2.0 0.00 0.00 0.00 57 1013.9
20190818162834 72 283 0.0 2.0 0.00 0.00 0.00 57 1013.9
20190818162337 72 257 0.0 0.0 0.00 0.00 0.00 58 1014.0
20190818161822 71 338 0.0 0.0 0.00 0.00 0.00 60 1014.0
20190818161324 71 273 0.0 3.0 0.00 0.00 0.00 60 1014.0
20190818160828 72 268 1.0 3.0 0.00 0.00 0.00 58 1013.7
20190818160330 71 48 0.0 0.0 0.00 0.00 0.00 58 1013.7
20190818155833 71 268 0.0 0.0 0.00 0.00 0.00 57 1013.7
20190818155333 70 226 0.0 0.0 0.00 0.00 0.00 56 1013.9
20190818154835 69 321 0.0 0.0 0.00 0.00 0.00 56 1013.9
20190818154336 69 275 0.0 2.0 0.00 0.00 0.00 58 1013.9
20190818153838 69 259 1.0 2.0 0.00 0.00 0.00 60 1013.8
20190818153340 68 248 0.0 0.0 0.00 0.00 0.00 60 1013.8
20190818152822 68 229 0.0 0.0 0.00 0.00 0.00 60 1013.8
20190818152329 68 254 0.0 0.0 0.00 0.00 0.00 63 1012.8
20190818151831 66 254 0.0 0.0 0.00 0.00 0.00 64 1012.8
20190818151333 65 228 0.0 0.0 0.00 0.00 0.00 64 1012.8
20190818150832 64 228 0.0 0.0 0.00 0.00 0.00 64 1012.6
20190818150335 64 198 0.0 0.0 0.00 0.00 0.00 66 1012.6
20190818145837 63 198 0.0 0.0 0.00 0.00 0.00 65 1012.6
20190818145338 63 127 0.0 0.0 0.00 0.00 0.00 64 1012.6
20190818144822 64 126 0.0 0.0 0.00 0.00 0.00 63 1012.6
20190818144324 62 126 0.0 0.0 0.00 0.00 0.00 68 1012.6
20190818143827 60 126 0.0 0.0 0.00 0.00 0.00 73 1012.8
20190818143331 58 126 0.0 0.0 0.00 0.00 0.00 73 1012.8
20190818142834 58 126 0.0 0.0 0.00 0.00 0.00 75 1012.8
20190818142337 57 126 0.0 0.0 0.00 0.00 0.00 76 1012.8
20190818141840 56 126 0.0 0.0 0.00 0.00 0.00 77 1012.8
20190818141325 55 126 0.0 0.0 0.00 0.00 0.00 78 1012.8